Regional Weather Roundup
Issued by NWS

Home | Current Version | Previous Version | Graphics & Text | Print | Product List | Glossary On
Versions: 1 2 3 4 5 6 7 8 9 10 11 12 13 14 15 16 17 18 19 20 21 22 23 24 25 26 27 28 29 30 31 32 33 34 35 36 37 38 39 40 41 42 43 44 45 46 47 48 49 50
000
ASUS43 KBIS 302002
RWRND

NORTH DAKOTA REGIONAL WEATHER ROUNDUP
NATIONAL WEATHER SERVICE BISMARCK ND
300 PM CDT SUN AUG 30 2015

NOTE: "FAIR" INDICATES FEW OR NO CLOUDS BELOW 12,000 FEET WITH NO
SIGNIFICANT WEATHER AND/OR OBSTRUCTIONS TO VISIBILITY.


NDZ001>003-009>011-017-302100-
NORTHWEST NORTH DAKOTA

CITY           SKY/WX    TMP DP  RH WIND       PRES   REMARKS
WILLISTON      CLOUDY    84  46  26 N18       29.71F
MINOT          PTSUNNY   90  52  27 SW13      29.62R
MINOT AFB      PTSUNNY   94  55  26 S9        29.60S HX  92
$$

NDZ018>021-031>035-040>046-302100-
SOUTHWEST NORTH DAKOTA

CITY           SKY/WX    TMP DP  RH WIND       PRES   REMARKS
BISMARCK       PTSUNNY   92  60  34 S13       29.65F HX  91
DICKINSON      PTSUNNY   91  47  21 NW13      29.71F
GARRISON         N/A     90  54  29 W12G23    29.67R
HETTINGER ARPT MOSUNNY   98  46  17 NW8       29.73F HX  94
$$

NDZ004>008-012>016-024-026-027-054-302100-
NORTHEAST NORTH DAKOTA

CITY           SKY/WX    TMP DP  RH WIND       PRES   REMARKS
GRAND FORKS    CLOUDY    87  69  54 S14G22    29.70F HX  91
GRND FRKS AFB  SUNNY     86  69  56 S18       29.70F HX  90
DEVILS LAKE    MOSUNNY   88  66  48 S18       29.66F HX  90
$$

NDZ022-023-025-028>030-036>039-047>053-302100-
SOUTHEAST NORTH DAKOTA

CITY           SKY/WX    TMP DP  RH WIND       PRES   REMARKS
FARGO          SUNNY     87  66  49 S16G26    29.76F
JAMESTOWN      MOSUNNY   84  67  56 S14G24    29.72F
$$



USA.gov is the U.S. government's official web portal to all federal, state and local government web resources and services.